Time,TemperatureF,DewpointF,PressureIn,WindDirection,WindDirectionDegrees,WindSpeedMPH,WindSpeedGustMPH,Humidity,HourlyPrecipIn,Conditions,Clouds,dailyrainin,SoftwareType,DateUTC
2013-05-05 00:02:00,50.0,42.0,30.23,NW,319,0.0,1.0,75,0.00,,,0.00,,2013-05-05 04:02:00,
2013-05-05 00:12:00,50.0,42.0,30.23,NW,319,0.0,1.0,75,0.00,,,0.00,,2013-05-05 04:12:00,
2013-05-05 00:23:00,50.0,42.0,30.24,WNW,293,0.0,2.0,75,0.00,,,0.00,,2013-05-05 04:23:00,
2013-05-05 00:32:00,49.0,42.0,30.24,West,281,0.0,2.0,78,0.00,,,0.00,,2013-05-05 04:32:00,
2013-05-05 00:43:00,49.0,42.0,30.24,West,281,0.0,2.0,78,0.00,,,0.00,,2013-05-05 04:43:00,
2013-05-05 00:53:00,48.0,42.0,30.24,West,280,0.0,1.0,80,0.00,,,0.00,,2013-05-05 04:53:00,
2013-05-05 01:02:00,48.0,42.0,30.24,West,280,1.0,3.0,81,0.00,,,0.00,,2013-05-05 05:02:00,
2013-05-05 01:12:00,48.0,42.0,30.24,West,280,1.0,3.0,81,0.00,,,0.00,,2013-05-05 05:12:00,
2013-05-05 01:22:00,47.0,41.0,30.24,West,275,0.0,1.0,81,0.00,,,0.00,,2013-05-05 05:22:00,
2013-05-05 01:32:00,47.0,41.0,30.25,West,271,1.0,2.0,80,0.00,,,0.00,,2013-05-05 05:32:00,
2013-05-05 01:42:00,47.0,41.0,30.25,West,271,1.0,2.0,80,0.00,,,0.00,,2013-05-05 05:42:00,
2013-05-05 01:52:00,47.0,41.0,30.25,West,273,0.0,2.0,80,0.00,,,0.00,,2013-05-05 05:52:00,
2013-05-05 02:01:00,46.0,41.0,30.24,West,265,0.0,2.0,83,0.00,,,0.00,,2013-05-05 06:01:00,
2013-05-05 02:12:00,46.0,41.0,30.24,West,265,0.0,2.0,83,0.00,,,0.00,,2013-05-05 06:12:00,
2013-05-05 02:21:00,45.0,40.0,30.24,West,265,0.0,1.0,84,0.00,,,0.00,,2013-05-05 06:21:00,
2013-05-05 02:32:00,45.0,41.0,30.25,West,266,0.0,1.0,86,0.00,,,0.00,,2013-05-05 06:32:00,
2013-05-05 02:42:00,45.0,41.0,30.25,West,266,0.0,1.0,86,0.00,,,0.00,,2013-05-05 06:42:00,
2013-05-05 02:52:00,44.0,40.0,30.25,West,266,0.0,1.0,87,0.00,,,0.00,,2013-05-05 06:52:00,
2013-05-05 03:01:00,44.0,40.0,30.25,West,280,0.0,1.0,87,0.00,,,0.00,,2013-05-05 07:01:00,
2013-05-05 03:11:00,44.0,40.0,30.25,West,280,0.0,1.0,87,0.00,,,0.00,,2013-05-05 07:11:00,
2013-05-05 03:22:00,44.0,40.0,30.26,West,280,0.0,1.0,87,0.00,,,0.00,,2013-05-05 07:22:00,
2013-05-05 03:32:00,43.0,40.0,30.26,West,280,0.0,1.0,88,0.00,,,0.00,,2013-05-05 07:32:00,
2013-05-05 03:42:00,43.0,40.0,30.26,West,280,0.0,1.0,88,0.00,,,0.00,,2013-05-05 07:42:00,
2013-05-05 03:52:00,43.0,40.0,30.26,West,276,0.0,1.0,88,0.00,,,0.00,,2013-05-05 07:52:00,
2013-05-05 04:02:00,42.0,39.0,30.26,West,276,0.0,1.0,88,0.00,,,0.00,,2013-05-05 08:02:00,
2013-05-05 04:11:00,42.0,39.0,30.26,West,276,0.0,1.0,88,0.00,,,0.00,,2013-05-05 08:11:00,
2013-05-05 04:21:00,42.0,39.0,30.26,West,276,0.0,0.0,89,0.00,,,0.00,,2013-05-05 08:21:00,
2013-05-05 04:32:00,41.0,38.0,30.26,West,276,0.0,-999.0,90,-99.99,,,-99.99,,2013-05-05 08:32:00,
2013-05-05 04:42:00,41.0,38.0,30.26,West,276,0.0,-999.0,90,-99.99,,,-99.99,,2013-05-05 08:42:00,
2013-05-05 04:53:00,41.0,38.0,30.26,West,281,0.0,1.0,89,0.00,,,0.00,,2013-05-05 08:53:00,
2013-05-05 05:01:00,41.0,38.0,30.26,WNW,285,0.0,1.0,89,0.00,,,0.00,,2013-05-05 09:01:00,
2013-05-05 05:11:00,41.0,38.0,30.26,WNW,285,0.0,1.0,89,0.00,,,0.00,,2013-05-05 09:11:00,
2013-05-05 05:21:00,41.0,38.0,30.26,West,269,0.0,0.0,90,0.00,,,0.00,,2013-05-05 09:21:00,
2013-05-05 05:33:00,40.0,37.0,30.26,West,264,0.0,1.0,90,0.00,,,0.00,,2013-05-05 09:33:00,
2013-05-05 05:42:00,40.0,37.0,30.26,West,264,0.0,1.0,90,0.00,,,0.00,,2013-05-05 09:42:00,
2013-05-05 05:52:00,40.0,37.0,30.27,West,264,0.0,1.0,90,0.00,,,0.00,,2013-05-05 09:52:00,
2013-05-05 06:03:00,40.0,38.0,30.27,WNW,288,0.0,1.0,91,0.00,,,0.00,,2013-05-05 10:03:00,
2013-05-05 06:12:00,40.0,38.0,30.27,WNW,288,0.0,1.0,91,0.00,,,0.00,,2013-05-05 10:12:00,
2013-05-05 06:22:00,40.0,37.0,30.27,West,278,1.0,1.0,90,0.00,,,0.00,,2013-05-05 10:22:00,
2013-05-05 06:32:00,40.0,38.0,30.28,West,272,0.0,2.0,91,0.00,,,0.00,,2013-05-05 10:32:00,
2013-05-05 06:42:00,40.0,38.0,30.28,West,272,0.0,2.0,91,0.00,,,0.00,,2013-05-05 10:42:00,
2013-05-05 06:53:00,40.0,38.0,30.29,NW,325,0.0,1.0,91,0.00,,,0.00,,2013-05-05 10:53:00,
2013-05-05 07:01:00,41.0,38.0,30.29,NNW,342,0.0,1.0,90,0.00,,,0.00,,2013-05-05 11:01:00,
2013-05-05 07:12:00,41.0,38.0,30.29,NNW,342,0.0,1.0,90,0.00,,,0.00,,2013-05-05 11:12:00,
2013-05-05 07:22:00,44.0,39.0,30.29,WNW,299,1.0,3.0,84,0.00,,,0.00,,2013-05-05 11:22:00,
2013-05-05 07:32:00,46.0,41.0,30.29,West,260,1.0,3.0,81,0.00,,,0.00,,2013-05-05 11:32:00,
2013-05-05 07:42:00,46.0,41.0,30.29,West,260,1.0,3.0,81,0.00,,,0.00,,2013-05-05 11:42:00,
2013-05-05 07:52:00,48.0,41.0,30.29,WNW,288,0.0,2.0,78,0.00,,,0.00,,2013-05-05 11:52:00,
2013-05-05 08:02:00,51.0,43.0,30.29,WNW,297,0.0,2.0,74,0.00,,,0.00,,2013-05-05 12:02:00,
2013-05-05 08:11:00,51.0,43.0,30.29,WNW,297,0.0,2.0,74,0.00,,,0.00,,2013-05-05 12:11:00,
2013-05-05 08:22:00,54.0,43.0,30.29,NW,321,0.0,2.0,67,0.00,,,0.00,,2013-05-05 12:22:00,
2013-05-05 08:32:00,55.0,42.0,30.28,WNW,282,1.0,3.0,61,0.00,,,0.00,,2013-05-05 12:32:00,
2013-05-05 08:42:00,55.0,42.0,30.28,WNW,282,1.0,3.0,61,0.00,,,0.00,,2013-05-05 12:42:00,
2013-05-05 08:52:00,57.0,42.0,30.28,ENE,69,0.0,3.0,58,0.00,,,0.00,,2013-05-05 12:52:00,
2013-05-05 09:01:00,59.0,42.0,30.28,SE,142,0.0,3.0,54,0.00,,,0.00,,2013-05-05 13:01:00,
2013-05-05 09:11:00,59.0,42.0,30.28,SE,142,0.0,3.0,54,0.00,,,0.00,,2013-05-05 13:11:00,
2013-05-05 09:21:00,60.0,43.0,30.28,SE,125,1.0,3.0,53,0.00,,,0.00,,2013-05-05 13:21:00,
2013-05-05 09:32:00,60.0,42.0,30.28,SSE,148,1.0,5.0,51,0.00,,,0.00,,2013-05-05 13:32:00,
2013-05-05 09:42:00,60.0,42.0,30.28,SSE,148,1.0,5.0,51,0.00,,,0.00,,2013-05-05 13:42:00,
2013-05-05 09:52:00,61.0,43.0,30.28,SE,124,1.0,4.0,52,0.00,,,0.00,,2013-05-05 13:52:00,
2013-05-05 10:02:00,62.0,43.0,30.27,ENE,61,1.0,4.0,50,0.00,,,0.00,,2013-05-05 14:02:00,
2013-05-05 10:11:00,62.0,43.0,30.27,ENE,61,1.0,4.0,50,0.00,,,0.00,,2013-05-05 14:11:00,
2013-05-05 10:21:00,63.0,43.0,30.27,ESE,104,1.0,5.0,48,0.00,,,0.00,,2013-05-05 14:21:00,
2013-05-05 10:32:00,64.0,42.0,30.26,East,79,2.0,6.0,45,0.00,,,0.00,,2013-05-05 14:32:00,
2013-05-05 10:42:00,64.0,42.0,30.26,East,79,2.0,6.0,45,0.00,,,0.00,,2013-05-05 14:42:00,
2013-05-05 10:52:00,64.0,39.0,30.26,SE,129,2.0,5.0,40,0.00,,,0.00,,2013-05-05 14:52:00,
2013-05-05 11:02:00,65.0,41.0,30.25,ESE,111,1.0,8.0,41,0.00,,,0.00,,2013-05-05 15:02:00,
2013-05-05 11:11:00,65.0,41.0,30.25,ESE,111,1.0,8.0,41,0.00,,,0.00,,2013-05-05 15:11:00,
2013-05-05 11:21:00,65.0,41.0,30.25,East,89,1.0,6.0,42,0.00,,,0.00,,2013-05-05 15:21:00,
2013-05-05 11:33:00,66.0,41.0,30.25,ESE,120,2.0,6.0,40,0.00,,,0.00,,2013-05-05 15:33:00,
2013-05-05 11:43:00,66.0,41.0,30.25,ESE,120,2.0,6.0,40,0.00,,,0.00,,2013-05-05 15:43:00,
2013-05-05 11:53:00,67.0,42.0,30.24,SE,135,0.0,6.0,40,0.00,,,0.00,,2013-05-05 15:53:00,
2013-05-05 12:03:00,68.0,43.0,30.24,East,101,0.0,7.0,40,0.00,,,0.00,,2013-05-05 16:03:00,
2013-05-05 12:12:00,68.0,43.0,30.24,East,101,0.0,7.0,40,0.00,,,0.00,,2013-05-05 16:12:00,
2013-05-05 12:23:00,67.0,42.0,30.23,East,96,3.0,5.0,40,0.00,,,0.00,,2013-05-05 16:23:00,
2013-05-05 12:32:00,68.0,41.0,30.23,SE,134,3.0,7.0,38,0.00,,,0.00,,2013-05-05 16:32:00,
2013-05-05 12:42:00,68.0,41.0,30.23,SE,134,3.0,7.0,38,0.00,,,0.00,,2013-05-05 16:42:00,
2013-05-05 12:52:00,69.0,43.0,30.22,East,94,2.0,6.0,39,0.00,,,0.00,,2013-05-05 16:52:00,
2013-05-05 13:02:00,69.0,43.0,30.22,SE,132,1.0,6.0,39,0.00,,,0.00,,2013-05-05 17:02:00,
2013-05-05 13:12:00,69.0,43.0,30.22,SE,132,1.0,6.0,39,0.00,,,0.00,,2013-05-05 17:12:00,
2013-05-05 13:23:00,69.0,43.0,30.22,SE,132,1.0,6.0,39,0.00,,,0.00,,2013-05-05 17:23:00,
2013-05-05 13:32:00,70.0,43.0,30.21,ESE,111,3.0,7.0,38,0.00,,,0.00,,2013-05-05 17:32:00,
2013-05-05 13:42:00,70.0,43.0,30.21,ESE,111,3.0,7.0,38,0.00,,,0.00,,2013-05-05 17:42:00,
2013-05-05 13:52:00,71.0,43.0,30.20,SE,129,2.0,9.0,37,0.00,,,0.00,,2013-05-05 17:52:00,
2013-05-05 14:01:00,72.0,43.0,30.19,ESE,110,3.0,9.0,35,0.00,,,0.00,,2013-05-05 18:01:00,
2013-05-05 14:12:00,72.0,43.0,30.19,ESE,110,3.0,9.0,35,0.00,,,0.00,,2013-05-05 18:12:00,
2013-05-05 14:21:00,72.0,41.0,30.19,ENE,58,2.0,7.0,32,0.00,,,0.00,,2013-05-05 18:21:00,
2013-05-05 14:32:00,72.0,41.0,30.18,SE,139,1.0,8.0,33,0.00,,,0.00,,2013-05-05 18:32:00,
2013-05-05 14:42:00,72.0,41.0,30.18,SE,139,1.0,8.0,33,0.00,,,0.00,,2013-05-05 18:42:00,
2013-05-05 14:52:00,73.0,41.0,30.17,SSE,166,3.0,9.0,31,0.00,,,0.00,,2013-05-05 18:52:00,
2013-05-05 15:01:00,74.0,40.0,30.17,ESE,110,4.0,8.0,29,0.00,,,0.00,,2013-05-05 19:01:00,
2013-05-05 15:12:00,74.0,40.0,30.17,ESE,110,4.0,8.0,29,0.00,,,0.00,,2013-05-05 19:12:00,
2013-05-05 15:21:00,74.0,41.0,30.17,NW,316,3.0,10.0,30,0.00,,,0.00,,2013-05-05 19:21:00,
2013-05-05 15:32:00,74.0,39.0,30.16,SE,128,5.0,11.0,28,0.00,,,0.00,,2013-05-05 19:32:00,
2013-05-05 15:42:00,74.0,39.0,30.16,SE,128,5.0,11.0,28,0.00,,,0.00,,2013-05-05 19:42:00,
2013-05-05 15:52:00,74.0,38.0,30.16,SE,129,4.0,13.0,27,0.00,,,0.00,,2013-05-05 19:52:00,
2013-05-05 16:01:00,74.0,38.0,30.15,SE,132,4.0,13.0,27,0.00,,,0.00,,2013-05-05 20:01:00,
2013-05-05 16:11:00,74.0,38.0,30.15,SE,132,4.0,13.0,27,0.00,,,0.00,,2013-05-05 20:11:00,
2013-05-05 16:21:00,74.0,37.0,30.15,ESE,107,5.0,13.0,26,0.00,,,0.00,,2013-05-05 20:21:00,
2013-05-05 16:32:00,74.0,37.0,30.14,SE,125,4.0,11.0,26,0.00,,,0.00,,2013-05-05 20:32:00,
2013-05-05 16:42:00,74.0,37.0,30.14,SE,125,4.0,11.0,26,0.00,,,0.00,,2013-05-05 20:42:00,
2013-05-05 16:52:00,74.0,37.0,30.14,ESE,105,7.0,16.0,26,0.00,,,0.00,,2013-05-05 20:52:00,
2013-05-05 17:02:00,74.0,36.0,30.14,SE,128,4.0,9.0,25,0.00,,,0.00,,2013-05-05 21:02:00,
2013-05-05 17:11:00,74.0,36.0,30.14,SE,128,4.0,9.0,25,0.00,,,0.00,,2013-05-05 21:11:00,
2013-05-05 17:21:00,74.0,36.0,30.14,ESE,108,4.0,13.0,25,0.00,,,0.00,,2013-05-05 21:21:00,
2013-05-05 17:33:00,74.0,33.0,30.14,ESE,115,4.0,9.0,22,0.00,,,0.00,,2013-05-05 21:33:00,
2013-05-05 17:42:00,74.0,33.0,30.14,ESE,115,4.0,9.0,22,0.00,,,0.00,,2013-05-05 21:42:00,
2013-05-05 17:53:00,74.0,33.0,30.14,East,94,3.0,9.0,22,0.00,,,0.00,,2013-05-05 21:53:00,
2013-05-05 18:03:00,74.0,29.0,30.14,SSE,160,5.0,11.0,19,0.00,,,0.00,,2013-05-05 22:03:00,
2013-05-05 18:12:00,74.0,29.0,30.14,SSE,160,5.0,11.0,19,0.00,,,0.00,,2013-05-05 22:12:00,
2013-05-05 18:22:00,73.0,27.0,30.14,SE,138,4.0,10.0,18,0.00,,,0.00,,2013-05-05 22:22:00,
2013-05-05 18:33:00,73.0,30.0,30.14,NE,48,3.0,10.0,20,0.00,,,0.00,,2013-05-05 22:33:00,
2013-05-05 18:42:00,73.0,30.0,30.14,NE,48,3.0,10.0,20,0.00,,,0.00,,2013-05-05 22:42:00,
2013-05-05 18:52:00,73.0,32.0,30.14,SE,135,1.0,9.0,22,0.00,,,0.00,,2013-05-05 22:52:00,
2013-05-05 19:02:00,72.0,30.0,30.14,East,101,2.0,11.0,21,0.00,,,0.00,,2013-05-05 23:02:00,
2013-05-05 19:12:00,72.0,30.0,30.14,East,101,2.0,11.0,21,0.00,,,0.00,,2013-05-05 23:12:00,
2013-05-05 19:21:00,72.0,31.0,30.14,ENE,73,1.0,10.0,22,0.00,,,0.00,,2013-05-05 23:21:00,
2013-05-05 19:32:00,72.0,31.0,30.14,SE,131,1.0,4.0,22,0.00,,,0.00,,2013-05-05 23:32:00,
2013-05-05 19:42:00,72.0,31.0,30.14,SE,131,1.0,4.0,22,0.00,,,0.00,,2013-05-05 23:42:00,
2013-05-05 19:52:00,70.0,29.0,30.14,SE,131,1.0,6.0,22,0.00,,,0.00,,2013-05-05 23:52:00,
2013-05-05 20:01:00,70.0,30.0,30.14,East,84,2.0,4.0,23,0.00,,,0.00,,2013-05-06 00:01:00,
2013-05-05 20:11:00,70.0,30.0,30.14,East,84,2.0,4.0,23,0.00,,,0.00,,2013-05-06 00:11:00,
2013-05-05 20:21:00,69.0,33.0,30.15,East,101,0.0,3.0,26,0.00,,,0.00,,2013-05-06 00:21:00,
2013-05-05 20:32:00,66.0,35.0,30.15,East,100,0.0,0.0,32,0.00,,,0.00,,2013-05-06 00:32:00,
2013-05-05 20:42:00,66.0,35.0,30.15,East,100,0.0,0.0,32,0.00,,,0.00,,2013-05-06 00:42:00,
2013-05-05 20:51:00,63.0,36.0,30.16,East,100,0.0,1.0,37,0.00,,,0.00,,2013-05-06 00:51:00,
2013-05-05 21:01:00,60.0,39.0,30.16,East,100,0.0,0.0,45,0.00,,,0.00,,2013-05-06 01:01:00,
2013-05-05 21:11:00,60.0,39.0,30.16,East,100,0.0,0.0,45,0.00,,,0.00,,2013-05-06 01:11:00,
2013-05-05 21:21:00,58.0,39.0,30.17,East,100,0.0,1.0,49,0.00,,,0.00,,2013-05-06 01:21:00,
2013-05-05 21:32:00,57.0,40.0,30.17,East,101,0.0,0.0,53,0.00,,,0.00,,2013-05-06 01:32:00,
2013-05-05 21:42:00,57.0,40.0,30.17,East,101,0.0,0.0,53,0.00,,,0.00,,2013-05-06 01:42:00,
2013-05-05 21:52:00,55.0,41.0,30.18,East,101,0.0,0.0,59,0.00,,,0.00,,2013-05-06 01:52:00,
2013-05-05 22:02:00,53.0,40.0,30.18,East,100,0.0,1.0,61,0.00,,,0.00,,2013-05-06 02:02:00,
2013-05-05 22:12:00,53.0,40.0,30.18,East,100,0.0,1.0,61,0.00,,,0.00,,2013-05-06 02:12:00,
2013-05-05 22:21:00,52.0,41.0,30.18,East,100,0.0,0.0,66,0.00,,,0.00,,2013-05-06 02:21:00,
2013-05-05 22:32:00,51.0,39.0,30.19,West,278,0.0,2.0,64,0.00,,,0.00,,2013-05-06 02:32:00,
2013-05-05 22:42:00,51.0,39.0,30.19,West,278,0.0,2.0,64,0.00,,,0.00,,2013-05-06 02:42:00,
2013-05-05 22:51:00,51.0,39.0,30.19,West,281,1.0,2.0,63,0.00,,,0.00,,2013-05-06 02:51:00,
2013-05-05 23:02:00,50.0,39.0,30.19,West,280,1.0,3.0,65,0.00,,,0.00,,2013-05-06 03:02:00,
2013-05-05 23:11:00,50.0,39.0,30.19,West,280,1.0,3.0,65,0.00,,,0.00,,2013-05-06 03:11:00,
2013-05-05 23:22:00,50.0,39.0,30.19,West,270,0.0,4.0,67,0.00,,,0.00,,2013-05-06 03:22:00,
2013-05-05 23:33:00,49.0,40.0,30.20,NW,326,0.0,1.0,71,0.00,,,0.00,,2013-05-06 03:33:00,
2013-05-05 23:42:00,49.0,40.0,30.20,NW,326,0.0,1.0,71,0.00,,,0.00,,2013-05-06 03:42:00,
2013-05-05 23:52:00,47.0,39.0,30.20,WNW,283,0.0,2.0,75,0.00,,,0.00,,2013-05-06 03:52:00,